Tracking 19242 objects as of 16-Aug-2018
HD Live streaming from Space Station
objects crossing your sky now

SKYNET 4E

Track SKYNET 4E now!
SKYNET 4E is classified as:


NORAD ID: 25639
Int'l Code: 1999-009B
Perigee: 35,777.6 km
Apogee: 35,808.3 km
Inclination: 10.5 °
Period: 1,436.1 minutes
Semi major axis: 42163 km
RCS: 5.2477 m2 (large)
Launch date: February 26, 1999
Source: United Kingdom (UK)
Launch site: FRENCH GUIANA (FRGUI)

Used primarily by UK's armed forces, government departments, agencies and other organizations that require secure communications.
aabbcc
Your satellite tracking list
Your tracking list is empty




NASA's NSSDC Master Catalog

Two Line Element Set (TLE):
1 25639U 99009B   18227.19931223 -.00000054  00000-0  00000+0 0  9991
2 25639  10.4645  25.4514 0003642 106.8217 261.8000  1.00274756 71319
Source of the keplerian elements: AFSPC